| time (UTC) | temp C | wind direction | speed KPH | gust KPH | rain 1hr cm | rain 24hr cm | rain mn cm | humidity % | barometer mb |
| 20260905091547 | 17 | 277 | 1.6 | 0.0 | 0.00 | 0.00 | 0.05 | 74 | 1005.0 |
| 20260905090040 | 17 | 282 | 1.6 | 0.0 | 0.00 | 0.00 | 0.05 | 77 | 1005.0 |
| 20260905084549 | 16 | 246 | 3.2 | 0.0 | 0.00 | 0.00 | 0.05 | 79 | 1004.9 |
| 20260905083033 | 16 | 210 | 3.2 | 0.0 | 0.00 | 0.00 | 0.05 | 79 | 1004.7 |
| 20260905081532 | 16 | 209 | 3.2 | 0.0 | 0.00 | 0.00 | 0.05 | 80 | 1004.6 |
| 20260905080031 | 16 | 227 | 1.6 | 0.0 | 0.00 | 0.00 | 0.05 | 81 | 1004.6 |
| 20260905074529 | 16 | 242 | 1.6 | 0.0 | 0.00 | 0.00 | 0.05 | 82 | 1004.3 |
| 20260905073026 | 15 | 229 | 1.6 | 0.0 | 0.00 | 0.00 | 0.05 | 83 | 1004.3 |
| 20260905071526 | 15 | 222 | 1.6 | 0.0 | 0.00 | 0.00 | 0.05 | 83 | 1004.3 |
| 20260905070024 | 15 | 215 | 1.6 | 0.0 | 0.00 | 0.00 | 0.05 | 83 | 1004.2 |
| 20260905064522 | 15 | 234 | 1.6 | 0.0 | 0.00 | 0.00 | 0.05 | 84 | 1004.1 |
| 20260905063021 | 15 | 215 | 1.6 | 0.0 | 0.00 | 0.00 | 0.05 | 85 | 1004.1 |
| 20260905061528 | 15 | 243 | 1.6 | 0.0 | 0.00 | 0.00 | 0.05 | 85 | 1004.0 |
| 20260905060027 | 14 | 230 | 0.0 | 0.0 | 0.00 | 0.00 | 0.05 | 86 | 1003.7 |
| 20260905054522 | 14 | 234 | 1.6 | 0.0 | 0.00 | 0.00 | 0.03 | 86 | 1003.6 |
| 20260905053015 | 14 | 273 | 0.0 | 0.0 | 0.00 | 0.00 | 0.03 | 86 | 1003.6 |
| 20260905051527 | 14 | 245 | 1.6 | 0.0 | 0.00 | 0.00 | 0.03 | 86 | 1003.5 |
| 20260905050014 | 14 | 257 | 0.0 | 0.0 | 0.00 | 0.00 | 0.03 | 86 | 1003.3 |
| 20260905044511 | 14 | 236 | 0.0 | 0.0 | 0.00 | 0.00 | 0.03 | 85 | 1003.0 |
| 20260905043014 | 14 | 252 | 1.6 | 0.0 | 0.00 | 0.00 | 0.03 | 85 | 1002.8 |
| 20260905041510 | 14 | 196 | 1.6 | 0.0 | 0.00 | 0.00 | 0.03 | 86 | 1002.7 |
| 20260905040009 | 14 | 281 | 3.2 | 0.0 | 0.00 | 0.00 | 0.03 | 85 | 1002.7 |
| 20260905034509 | 14 | 253 | 1.6 | 0.0 | 0.00 | 0.00 | 0.03 | 86 | 1002.5 |
| 20260905033008 | 14 | 265 | 0.0 | 0.0 | 0.00 | 0.00 | 0.03 | 85 | 1002.4 |
| 20260905031513 | 14 | 214 | 1.6 | 0.0 | 0.00 | 0.00 | 0.03 | 85 | 1002.5 |
| 20260905030006 | 14 | 242 | 0.0 | 0.0 | 0.00 | 0.00 | 0.03 | 85 | 1002.3 |
| 20260905024504 | 14 | 223 | 0.0 | 0.0 | 0.00 | 0.00 | 0.03 | 84 | 1002.1 |
| 20260905023009 | 14 | 246 | 1.6 | 0.0 | 0.00 | 0.00 | 0.03 | 85 | 1002.0 |
| 20260905021501 | 14 | 275 | 1.6 | 0.0 | 0.00 | 0.00 | 0.03 | 84 | 1001.9 |
| 20260905014559 | 14 | 246 | 1.6 | 0.0 | 0.00 | 0.00 | 0.03 | 85 | 1001.5 |
| 20260905013117 | 14 | 280 | 1.6 | 0.0 | 0.00 | 0.00 | 0.03 | 87 | 1001.2 |
| 20260905011606 | 14 | 250 | 3.2 | 0.0 | 0.00 | 0.00 | 0.03 | 87 | 1001.0 |
| 20260905010100 | 14 | 240 | 1.6 | 0.0 | 0.00 | 0.00 | 0.03 | 87 | 1001.0 |
| 20260905004555 | 14 | 248 | 1.6 | 0.0 | 0.00 | 0.00 | 0.03 | 88 | 1000.9 |
| 20260905003052 | 14 | 238 | 0.0 | 0.0 | 0.00 | 0.00 | 0.03 | 88 | 1000.7 |
| 20260905001552 | 14 | 225 | 3.2 | 0.0 | 0.00 | 0.00 | 0.03 | 87 | 1000.6 |
| 20260905000049 | 14 | 206 | 1.6 | 0.0 | 0.00 | 0.00 | 0.03 | 88 | 1000.5 |
| 20260904234550 | 14 | 221 | 1.6 | 0.0 | 0.00 | 0.00 | 0.03 | 88 | 1000.4 |
| 20260904233048 | 14 | 250 | 1.6 | 0.0 | 0.00 | 0.00 | 0.03 | 88 | 1000.4 |
| 20260904231546 | 14 | 224 | 0.0 | 0.0 | 0.00 | 0.00 | 0.00 | 89 | 1000.2 |
| 20260904230100 | 14 | 256 | 0.0 | 0.0 | 0.00 | 0.00 | 0.00 | 89 | 1000.3 |
| 20260904224546 | 14 | 226 | 0.0 | 0.0 | 0.00 | 0.00 | 0.00 | 89 | 1000.3 |
| 20260904223102 | 14 | 232 | 1.6 | 0.0 | 0.00 | 0.00 | 0.00 | 89 | 1000.1 |
| 20260904221541 | 14 | 242 | 3.2 | 0.0 | 0.00 | 0.00 | 0.00 | 89 | 1000.1 |
| 20260904220044 | 14 | 292 | 1.6 | 0.0 | 0.00 | 0.00 | 0.00 | 89 | 1000.0 |
| 20260904214547 | 14 | 232 | 1.6 | 0.0 | 0.00 | 0.00 | 0.05 | 90 | 999.9 |
| 20260904213041 | 13 | 308 | 1.6 | 0.0 | 0.00 | 0.00 | 0.05 | 91 | 999.9 |
| 20260904211539 | 13 | 211 | 1.6 | 0.0 | 0.00 | 0.00 | 0.05 | 91 | 999.7 |
| 20260904210037 | 13 | 254 | 1.6 | 0.0 | 0.00 | 0.00 | 0.05 | 91 | 999.6 |
| 20260904204538 | 13 | 284 | 1.6 | 0.0 | 0.00 | 0.00 | 0.05 | 92 | 999.3 |
| 20260904203036 | 13 | 229 | 1.6 | 0.0 | 0.00 | 0.00 | 0.05 | 92 | 999.3 |
| 20260904201542 | 13 | 242 | 3.2 | 0.0 | 0.00 | 0.00 | 0.05 | 93 | 999.1 |
| 20260904200043 | 13 | 244 | 3.2 | 0.0 | 0.00 | 0.00 | 0.05 | 93 | 998.9 |
| 20260904194534 | 14 | 245 | 0.0 | 0.0 | 0.00 | 0.00 | 0.05 | 93 | 998.7 |
| 20260904193039 | 13 | 244 | 0.0 | 0.0 | 0.00 | 0.00 | 0.05 | 93 | 998.6 |
| 20260904191532 | 13 | 204 | 0.0 | 0.0 | 0.00 | 0.00 | 0.05 | 93 | 998.7 |
| 20260904190031 | 13 | 257 | 0.0 | 0.0 | 0.00 | 0.00 | 0.05 | 92 | 998.4 |
| 20260904184529 | 14 | 234 | 1.6 | 0.0 | 0.00 | 0.00 | 0.05 | 92 | 998.4 |
| 20260904183028 | 14 | 244 | 0.0 | 0.0 | 0.00 | 0.00 | 0.05 | 92 | 998.2 |
| 20260904181527 | 14 | 225 | 0.0 | 0.0 | 0.00 | 0.00 | 0.05 | 91 | 998.2 |
| 20260904180026 | 15 | 226 | 0.0 | 0.0 | 0.00 | 0.00 | 0.05 | 92 | 998.1 |
| 20260904174526 | 15 | 226 | 0.0 | 0.0 | 0.00 | 0.00 | 0.05 | 92 | 997.9 |
| 20260904173025 | 15 | 224 | 0.0 | 0.0 | 0.00 | 0.00 | 0.05 | 91 | 998.0 |
| 20260904171550 | 15 | 226 | 0.0 | 0.0 | 0.00 | 0.00 | 0.05 | 91 | 998.3 |
| 20260904170025 | 15 | 227 | 0.0 | 0.0 | 0.00 | 0.00 | 0.05 | 91 | 998.0 |
| 20260904164524 | 15 | 281 | 0.0 | 0.0 | 0.00 | 0.00 | 0.05 | 91 | 997.8 |
| 20260904163040 | 15 | 306 | 1.6 | 0.0 | 0.00 | 0.00 | 0.05 | 92 | 997.8 |
| 20260904161522 | 16 | 253 | 0.0 | 0.0 | 0.00 | 0.00 | 0.05 | 92 | 998.0 |
| 20260904160022 | 16 | 218 | 0.0 | 0.0 | 0.00 | 0.00 | 0.05 | 92 | 998.0 |
| 20260904154522 | 16 | 220 | 0.0 | 0.0 | 0.00 | 0.00 | 0.05 | 92 | 998.2 |
| 20260904153029 | 16 | 220 | 0.0 | 0.0 | 0.00 | 0.00 | 0.05 | 92 | 998.1 |
| 20260904151534 | 16 | 246 | 0.0 | 0.0 | 0.00 | 0.00 | 0.05 | 92 | 998.0 |
| 20260904150022 | 16 | 259 | 1.6 | 0.0 | 0.00 | 0.00 | 0.05 | 93 | 997.9 |
| 20260904144520 | 16 | 239 | 0.0 | 0.0 | 0.00 | 0.00 | 0.05 | 93 | 998.2 |
| 20260904143017 | 16 | 246 | 0.0 | 0.0 | 0.00 | 0.00 | 0.05 | 93 | 998.2 |
| 20260904141517 | 15 | 222 | 0.0 | 0.0 | 0.00 | 0.00 | 0.05 | 94 | 998.3 |
| 20260904140016 | 15 | 286 | 0.0 | 0.0 | 0.00 | 0.00 | 0.05 | 93 | 998.1 |
| 20260904134520 | 14 | 286 | 0.0 | 0.0 | 0.00 | 0.00 | 0.05 | 93 | 998.3 |
| 20260904133013 | 14 | 286 | 0.0 | 0.0 | 0.00 | 0.00 | 0.05 | 93 | 998.4 |
| 20260904131511 | 14 | 287 | 0.0 | 0.0 | 0.00 | 0.00 | 0.05 | 92 | 998.5 |
| 20260904130010 | 15 | 287 | 0.0 | 0.0 | 0.00 | 0.00 | 0.05 | 92 | 998.7 |
| 20260904124510 | 15 | 227 | 0.0 | 0.0 | 0.00 | 0.00 | 0.05 | 92 | 998.6 |
| 20260904123008 | 15 | 227 | 0.0 | 0.0 | 0.00 | 0.00 | 0.03 | 92 | 998.5 |
| 20260904121506 | 15 | 227 | 0.0 | 0.0 | 0.00 | 0.00 | 0.03 | 92 | 998.9 |
| 20260904120005 | 15 | 223 | 0.0 | 0.0 | 0.00 | 0.00 | 0.03 | 92 | 999.2 |
| 20260904114502 | 15 | 215 | 1.6 | 0.0 | 0.00 | 0.00 | 0.03 | 92 | 999.4 |
| 20260904113001 | 15 | 218 | 3.2 | 0.0 | 0.00 | 0.00 | 0.03 | 92 | 999.6 |
| 20260904111602 | 15 | 225 | 3.2 | 0.0 | 0.00 | 0.00 | 0.03 | 92 | 999.5 |
| 20260904110100 | 16 | 229 | 3.2 | 0.0 | 0.00 | 0.00 | 0.03 | 92 | 999.4 |
| 20260904104559 | 16 | 234 | 4.8 | 0.0 | 0.00 | 0.00 | 0.03 | 92 | 999.6 |
| 20260904103057 | 16 | 230 | 3.2 | 0.0 | 0.00 | 0.00 | 0.03 | 91 | 999.6 |
| 20260904101555 | 16 | 223 | 6.4 | 0.0 | 0.00 | 0.00 | 0.03 | 91 | 1000.0 |
| 20260904100053 | 16 | 230 | 6.4 | 0.0 | 0.00 | 0.00 | 0.03 | 91 | 1000.3 |
| 20260904094554 | 16 | 223 | 4.8 | 0.0 | 0.00 | 0.00 | 0.03 | 91 | 1000.3 |
| 20260904093050 | 15 | 228 | 4.8 | 0.0 | 0.00 | 0.00 | 0.03 | 91 | 1000.7 |